Wind_Speed
9 8 9 11 12 10 9 10 10 10 11 11 9 6 3 3 4 4 7 10 8 5 7 8 7 8 8 7 7 7 7 8 8 9 10 11 12 12 12 11 11 11 11 13 17 19 21 22 23 23 24 26 27 28 29 30 29 25 21 16 12 11 15 21 22 17 17 19 19 21 23 24 27 28 25 27 29 27 27 27 26 26 24 22 23 25 26
10 9 9 11 12 11 11 12 11 10 11 12 10 9 8 9 9 8 12 13 9 5 6 7 7 7 7 6 7 7 9 9 9 9 11 11 11 11 11 11 10 10 11 13 15 17 19 21 22 22 23 24 26 29 29 29 28 26 22 19 16 12 10 16 22 22 20 20 19 20 25 27 28 26 24 28 29 26 28 29 27 26 24 22 25 27 26
5 7 9 10 12 14 13 12 10 8 9 10 10 8 8 9 10 10 12 11 7 4 5 7 7 6 7 8 8 8 9 9 9 10 10 10 10 11 11 11 10 10 12 14 15 16 18 19 20 21 21 23 26 28 29 27 27 26 25 23 20 17 13 10 15 22 21 21 19 19 25 29 28 27 26 29 29 24 27 31 28 27 27 26 27 27 25
2 3 8 9 11 13 13 12 11 10 8 7 7 6 6 5 6 8 7 6 4 3 4 6 7 8 9 9 8 8 8 9 10 10 10 10 10 10 10 11 11 11 12 15 16 17 18 19 20 20 20 22 25 26 27 26 26 26 26 26 25 22 19 13 7 14 18 22 21 19 25 29 28 26 26 28 28 26 30 32 29 29 29 29 28 26 25
4 3 3 3 5 7 6 6 5 5 6 7 7 8 9 7 4 3 4 3 3 4 4 6 7 9 9 8 8 8 7 8 9 8 8 9 9 9 9 10 11 11 12 14 17 17 18 19 19 19 19 20 22 22 24 25 25 26 27 28 29 27 24 20 12 5 10 23 25 22 25 29 26 24 26 28 28 29 32 32 31 32 32 31 30 27 24
5 6 3 2 4 3 2 4 2 3 6 9 10 8 9 9 6 5 5 5 5 5 5 6 7 8 8 8 8 8 7 6 7 7 7 8 8 8 9 9 9 11 12 15 17 18 19 19 19 19 20 19 19 21 24 26 27 27 27 28 31 31 29 26 20 12 4 16 25 25 26 28 26 26 27 29 29 31 34 34 33 34 32 31 30 26 23
4 4 2 3 2 1 1 2 5 8 9 12 14 11 10 9 8 7 7 7 7 7 7 7 8 9 9 9 9 9 8 6 5 6 6 7 7 7 8 8 10 12 14 15 17 18 19 19 19 20 21 20 20 23 26 28 29 29 29 29 31 32 32 31 27 21 15 9 15 24 28 28 27 28 29 30 30 31 34 35 34 34 32 30 29 25 22
3 2 2 2 3 3 3 3 4 6 6 6 8 9 9 8 6 5 7 7 8 8 8 7 7 8 8 8 8 8 7 6 6 6 5 5 7 7 7 9 11 13 15 15 16 17 18 19 20 21 21 20 21 24 26 28 29 30 31 31 31 31 32 34 32 28 23 17 12 17 28 30 28 28 29 30 32 34 34 34 33 32 31 29 28 26 22
3 3 3 3 4 4 3 1 1 2 0 1 2 4 4 5 6 3 6 8 8 8 8 8 7 6 7 7 7 7 7 6 6 6 6 6 8 9 10 11 12 14 15 15 16 16 18 19 20 20 20 20 21 24 26 28 29 29 31 32 30 30 31 32 34 33 29 23 17 14 26 31 28 28 28 27 30 34 36 34 33 31 30 29 28 27 24
2 4 4 4 3 3 2 1 1 2 2 1 2 4 3 3 5 3 4 7 7 7 7 7 6 3 5 5 4 6 7 7 7 7 8 10 11 12 12 13 13 14 15 15 17 18 19 20 20 20 20 19 21 24 26 26 27 28 29 29 28 28 29 29 32 34 33 30 23 17 23 30 28 28 28 25 26 32 36 35 34 31 30 30 29 27 26
2 4 4 3 2 2 2 1 2 4 4 1 2 2 2 1 4 3 4 5 4 5 4 4 4 2 3 3 3 4 5 6 7 7 8 11 13 13 13 14 13 14 14 15 17 19 19 20 20 20 20 21 23 24 25 25 26 27 27 26 26 26 26 27 30 33 34 33 28 23 23 28 29 29 28 27 27 30 33 34 33 32 31 31 31 29 27
3 4 3 2 1 1 1 1 3 5 4 1 2 1 1 2 2 3 4 4 2 2 2 1 1 2 3 4 3 3 4 7 9 9 10 12 13 13 14 14 13 14 15 16 17 18 19 19 20 21 21 23 24 24 24 25 26 26 24 23 24 25 25 26 29 32 34 34 31 29 28 28 29 30 29 28 28 29 30 32 32 31 31 33 33 30 28
4 4 3 2 1 0 1 2 4 4 2 1 2 1 1 3 4 4 5 5 3 3 4 4 4 5 5 5 4 4 6 7 9 11 13 14 15 16 16 15 14 15 15 16 16 16 17 18 19 21 22 23 24 23 24 26 26 24 22 21 23 25 27 28 29 30 33 32 30 30 29 30 31 30 29 28 27 26 27 29 32 32 32 33 33 31 29
2 3 3 2 1 0 1 2 3 2 0 2 2 2 3 5 5 5 6 6 6 7 7 7 7 7 7 7 6 6 6 6 7 11 14 15 16 17 17 17 17 16 16 17 17 16 16 17 18 19 21 22 23 23 24 24 25 25 24 23 23 25 27 29 30 30 32 32 30 28 28 28 29 27 26 25 26 25 25 26 30 32 32 33 33 31 28
2 3 3 2 1 1 3 2 2 2 1 3 4 5 5 5 6 5 5 6 6 7 9 9 8 8 7 7 6 5 5 5 7 9 11 12 13 15 16 17 17 17 17 17 18 16 15 15 16 18 20 21 21 22 23 22 22 24 25 26 25 26 27 28 29 29 29 30 30 29 27 26 26 24 22 21 21 22 22 23 26 30 32 33 32 30 28
1 3 2 1 0 3 3 2 2 3 4 5 5 6 6 5 5 4 4 5 6 7 8 8 8 7 7 6 5 4 4 5 7 9 10 11 12 13 14 15 16 17 18 18 17 16 15 14 15 16 17 18 18 19 20 20 20 20 22 23 25 26 26 26 26 27 26 25 25 26 25 24 24 24 22 20 19 17 16 17 19 23 28 30 30 28 26
3 3 3 3 3 4 6 7 7 7 8 7 6 7 6 5 4 4 5 6 6 6 7 7 6 6 5 5 4 4 4 4 6 7 8 9 10 11 13 14 14 16 17 17 17 16 16 16 15 14 14 15 15 15 15 16 17 18 19 20 21 23 24 24 23 23 23 23 23 23 23 22 22 22 20 19 20 18 16 16 17 21 25 26 26 26 24
7 7 6 6 7 8 9 8 7 9 9 7 6 7 6 5 5 4 5 6 6 5 6 6 5 5 5 5 4 4 4 4 4 5 6 7 7 8 10 11 12 13 15 16 16 17 18 18 16 15 14 13 12 13 13 13 13 13 15 16 17 17 19 21 22 21 21 20 20 20 21 22 22 21 19 18 19 19 18 17 18 21 23 23 23 22 20
4 5 5 6 8 9 9 8 8 9 9 7 6 6 7 7 7 6 6 6 6 6 6 6 5 5 5 5 4 3 4 4 4 3 3 3 4 5 6 8 9 11 12 14 15 16 17 19 18 16 15 14 13 11 11 13 14 12 12 13 14 13 13 15 18 21 21 19 18 17 17 18 19 19 19 20 20 21 20 19 18 20 20 20 20 19 18
4 6 7 6 7 7 7 7 7 7 8 8 6 7 8 8 9 9 10 9 7 6 6 6 6 5 5 5 4 3 3 4 4 2 1 0 1 2 3 4 6 8 9 10 12 14 15 18 19 17 15 17 16 12 9 11 13 13 13 13 14 14 13 10 11 14 17 18 17 16 16 15 16 17 17 16 17 19 20 19 18 18 18 18 17 16 16
7 6 7 7 7 7 5 6 6 6 6 8 7 7 7 8 7 8 9 10 9 8 8 7 6 5 5 5 6 4 4 4 3 3 3 3 2 2 2 2 4 5 6 6 8 9 10 13 16 16 15 16 17 14 12 11 11 12 13 13 14 15 15 12 8 6 9 14 16 16 16 15 15 15 15 13 13 15 16 16 16 15 14 14 13 13 14
6 5 7 7 6 5 4 5 7 7 6 8 8 7 6 6 6 6 6 6 7 8 10 10 8 5 4 6 7 6 5 4 4 3 3 4 4 4 3 3 3 2 3 4 4 5 6 8 10 12 13 14 15 14 14 13 12 12 13 12 12 13 14 14 12 6 4 8 12 14 15 15 14 15 14 14 13 14 15 15 15 14 14 13 12 13 15
7 9 9 6 5 6 6 7 7 7 7 8 8 8 7 7 8 9 7 5 4 5 7 10 9 7 7 8 8 7 6 5 5 4 4 4 4 5 5 5 5 5 4 3 3 3 4 5 7 9 10 11 11 11 12 13 13 14 14 13 12 13 14 14 14 13 8 6 7 9 11 13 14 14 14 14 14 15 15 15 14 14 15 14 13 14 16
9 10 8 5 6 7 8 9 8 8 9 9 7 7 8 8 10 12 11 8 8 7 7 9 10 9 9 9 9 8 7 6 5 5 5 5 6 6 8 8 9 9 8 7 5 4 4 5 6 7 8 9 9 9 10 12 13 14 15 14 13 14 14 12 13 16 15 10 7 6 6 8 10 12 14 14 14 15 15 16 16 15 15 15 15 16 17
8 7 7 7 7 7 8 9 9 9 12 12 8 7 11 12 13 14 13 11 12 11 9 10 12 11 10 10 10 9 7 5 5 5 6 6 7 7 7 7 7 7 7 7 7 6 5 5 6 6 6 6 7 8 9 10 13 14 14 14 14 14 14 12 11 12 15 14 11 8 6 5 5 7 10 13 15 15 15 16 17 17 16 16 17 17 18
8 7 8 8 7 7 8 7 6 7 12 14 11 10 14 16 16 17 16 16 17 17 15 14 14 14 13 12 11 9 7 5 4 5 5 4 3 3 3 4 5 5 5 4 4 6 7 7 8 8 7 5 5 7 8 9 11 12 12 13 14 13 12 11 10 10 11 12 12 11 11 10 6 5 7 9 13 15 16 16 17 17 17 17 17 17 18
8 8 9 9 8 7 7 8 8 10 15 17 15 14 17 19 18 18 17 17 18 18 18 17 15 14 14 15 12 9 7 3 2 2 2 5 6 6 6 6 6 6 6 7 6 4 4 6 8 9 8 6 4 4 6 8 9 10 11 12 13 13 11 9 8 8 9 11 11 11 13 14 13 8 6 10 13 15 16 17 17 17 16 16 15 15 15
6 6 8 8 6 7 8 11 14 16 17 19 19 19 19 18 15 13 11 12 14 16 17 17 15 13 14 13 10 7 5 6 9 9 7 7 7 7 7 6 6 6 7 8 9 8 6 7 6 6 6 5 4 4 4 5 6 8 9 10 11 12 11 9 7 6 7 9 10 11 12 14 15 13 9 8 12 14 16 17 16 16 15 13 12 12 12
5 6 6 6 8 9 9 10 11 10 10 12 14 16 15 12 9 7 8 10 12 13 13 16 16 14 11 9 10 11 12 12 11 9 7 8 8 8 8 6 4 5 6 8 9 9 8 7 8 7 7 6 6 5 4 3 3 5 7 9 9 10 10 10 9 7 6 7 8 9 11 14 15 14 13 10 10 14 17 16 14 13 12 11 10 10 10
6 7 7 6 8 10 9 7 7 6 7 9 10 11 12 10 6 5 6 8 9 10 10 11 11 9 8 10 13 15 14 12 10 8 7 7 8 8 8 5 4 4 7 8 8 7 7 7 6 6 7 7 7 5 4 2 2 4 5 6 7 8 8 10 11 10 6 5 6 7 9 12 14 14 14 13 9 12 16 15 13 11 10 10 10 10 9
7 8 8 7 8 9 7 6 6 6 6 9 10 7 7 8 6 4 4 4 6 8 9 9 10 10 12 15 15 14 12 11 9 8 6 6 7 7 7 6 5 5 6 7 6 5 6 8 8 6 6 8 8 5 3 3 3 3 4 3 5 7 8 10 12 11 6 3 4 6 8 9 11 12 13 14 12 13 16 14 11 10 9 10 11 11 11
7 7 7 6 6 7 6 5 6 6 6 8 8 6 6 8 7 5 3 3 4 6 8 8 10 13 15 16 15 13 11 10 8 6 4 4 5 6 6 6 5 5 5 5 6 6 8 10 10 7 6 8 6 4 3 3 3 3 4 3 4 7 10 13 13 9 3 5 5 5 5 5 6 7 9 13 15 16 16 14 12 11 11 13 13 12 13
8 6 6 6 5 5 6 5 6 6 5 6 9 10 11 12 12 10 7 6 5 4 2 3 6 12 16 16 15 13 11 9 7 4 1 1 3 5 5 5 5 5 5 6 7 9 10 11 10 7 5 5 4 3 4 4 2 2 4 4 4 7 10 13 13 6 2 5 5 4 4 3 3 3 6 10 14 15 15 14 13 13 13 14 14 13 13
9 6 6 7 7 8 8 6 5 5 4 5 9 13 14 14 13 11 10 8 7 4 2 1 3 9 14 15 14 12 11 8 6 4 3 1 2 4 5 6 6 6 6 6 8 9 9 9 9 7 5 4 3 4 5 3 2 3 5 5 6 7 8 11 12 5 3 5 3 3 3 3 3 4 6 9 11 12 13 13 14 14 14 16 17 16 14
13 10 9 11 13 13 12 9 7 7 6 5 7 10 13 13 12 10 8 7 6 6 5 3 3 7 12 13 12 10 8 5 4 4 4 2 2 3 5 7 8 8 8 7 7 6 7 8 7 5 5 5 6 6 5 3 3 4 5 6 7 6 6 9 12 6 4 7 4 3 3 3 4 6 7 7 8 9 10 13 14 15 17 19 19 17 15
16 14 12 14 16 16 15 14 12 12 12 11 11 12 12 11 10 9 7 6 6 6 6 6 5 8 11 11 8 6 6 4 4 5 4 3 3 3 5 7 8 10 10 9 6 5 6 8 7 5 6 7 6 4 4 4 5 5 5 7 8 6 5 7 10 5 4 7 5 3 3 3 5 7 7 7 8 9 11 13 14 15 17 18 17 16 15
16 17 15 15 16 16 15 13 14 16 18 17 15 14 12 11 9 7 5 5 6 6 7 7 8 10 11 9 6 5 5 6 6 6 5 5 5 5 6 8 9 10 12 11 8 6 6 7 7 6 5 5 4 4 4 4 4 4 5 6 7 6 6 7 7 3 3 7 5 4 3 4 6 7 7 7 8 10 11 13 13 14 15 14 13 13 13
15 18 17 15 15 14 12 11 14 17 17 15 13 13 13 11 8 7 6 4 5 6 7 8 9 10 10 8 6 6 6 7 7 7 7 7 7 7 8 9 10 12 13 11 8 5 5 6 8 8 6 4 5 6 5 5 5 5 6 6 5 5 6 5 4 4 2 6 7 4 3 4 6 7 7 7 7 8 10 11 11 10 11 11 10 10 11
13 13 13 14 13 11 11 12 14 14 14 13 13 12 12 9 7 8 7 5 4 4 5 7 8 10 10 9 7 7 7 7 8 9 9 9 9 10 9 9 9 12 12 8 5 6 5 6 8 8 5 3 4 5 5 6 7 8 9 9 8 7 7 5 3 5 5 5 8 7 5 5 6 7 6 6 6 7 8 9 9 9 9 9 10 10 9
12 11 10 11 9 6 6 10 12 11 12 14 14 11 10 8 8 9 8 6 4 3 2 3 7 9 9 8 7 7 6 7 9 10 11 10 10 11 11 10 8 7 6 4 3 5 5 6 8 8 5 3 4 5 4 4 6 7 8 8 8 7 7 6 4 4 6 6 8 11 9 7 8 9 8 7 6 6 6 7 8 8 7 7 9 9 7
13 11 10 9 7 5 6 9 10 10 10 13 14 12 10 8 7 7 6 5 4 3 3 2 2 6 8 8 6 5 4 4 6 9 11 12 12 12 13 11 8 5 3 2 2 3 4 6 8 9 6 5 6 5 4 3 5 5 5 5 5 6 8 7 2 4 3 6 6 12 12 9 10 11 10 9 7 6 6 7 7 7 6 8 9 8 6
12 12 11 10 10 10 12 13 13 13 13 13 12 11 9 7 5 5 4 3 2 1 3 5 3 1 4 4 3 3 3 3 4 6 9 11 12 12 12 11 8 7 7 6 4 3 5 7 8 9 8 7 7 5 4 5 6 5 4 5 7 9 11 9 4 5 3 7 7 10 13 12 11 12 12 11 9 7 7 9 9 8 9 10 9 5 4
13 14 14 12 10 10 13 15 15 14 13 10 8 8 7 5 4 4 3 2 1 0 2 4 4 2 1 1 1 2 4 4 3 4 6 9 10 10 11 11 9 9 11 10 6 5 7 7 6 7 6 7 7 6 5 5 6 6 6 7 8 9 9 9 7 8 8 7 6 8 13 14 14 14 13 12 11 9 9 11 10 10 10 11 8 5 5
15 15 13 10 8 9 12 14 14 11 9 6 6 5 5 5 4 3 2 2 2 2 2 2 2 2 2 2 2 3 4 4 2 3 4 6 8 10 11 11 10 9 10 11 8 5 5 5 5 6 4 4 6 7 6 6 7 8 9 9 9 8 7 8 9 11 11 8 4 6 11 15 16 15 14 13 12 11 11 11 12 11 11 10 8 6 6
14 13 10 8 7 9 10 10 10 8 6 5 4 5 6 7 6 4 3 3 2 2 2 2 2 2 2 3 3 4 4 2 1 2 3 5 6 6 7 8 8 7 8 9 8 6 5 4 5 5 4 3 6 8 8 8 8 9 9 9 9 8 8 9 11 13 12 8 4 4 7 11 14 16 16 15 13 12 12 11 11 12 12 10 7 6 7
11 10 8 6 6 7 8 8 8 7 5 4 6 7 8 7 5 3 2 2 1 1 1 2 2 3 3 3 3 2 0 1 2 2 2 3 4 4 5 5 5 5 5 6 7 7 6 6 5 5 5 6 7 8 9 9 9 9 9 9 8 8 8 10 12 12 9 7 6 5 4 5 9 13 16 17 15 13 12 12 11 12 13 12 8 5 6
11 8 7 7 6 7 9 9 9 9 10 11 11 9 7 6 6 5 4 4 4 4 4 3 3 3 3 3 2 1 2 3 3 3 3 3 4 3 3 3 4 4 4 5 6 6 7 7 8 7 6 7 8 8 9 9 9 9 8 8 8 8 8 8 9 8 6 8 9 6 2 1 4 10 14 17 17 16 15 14 12 12 13 13 10 7 7
11 9 10 10 8 7 9 10 13 15 15 13 11 8 7 8 10 10 9 8 8 8 8 8 8 7 6 5 4 3 2 1 1 3 4 5 5 5 4 4 5 5 6 6 7 7 7 8 9 9 9 9 9 9 8 8 8 7 8 8 9 9 8 7 8 7 8 10 10 6 2 0 2 7 11 14 16 18 18 16 14 13 13 13 12 10 9
11 11 11 10 7 7 10 14 16 16 15 13 11 10 9 10 12 11 11 10 11 11 10 10 9 9 8 7 6 5 3 2 2 3 3 3 4 6 7 7 7 7 8 8 8 9 9 9 10 10 10 10 9 8 7 6 5 4 5 6 7 6 5 6 6 4 7 8 6 6 5 3 0 3 7 12 15 18 19 17 15 14 13 14 13 12 10
10 10 9 7 8 10 11 12 14 15 16 15 14 12 10 11 12 12 12 12 12 11 10 9 8 8 8 7 6 4 3 2 1 2 2 2 3 4 6 7 8 8 8 8 9 9 10 10 11 10 10 9 8 6 5 5 5 3 4 5 4 2 2 4 4 1 3 3 4 6 9 8 3 3 5 9 13 15 17 16 15 13 12 13 13 13 12
11 11 10 9 9 8 7 8 13 17 17 15 13 11 10 11 12 12 10 10 9 9 8 8 7 7 6 5 4 4 4 4 3 3 3 3 2 3 3 3 4 5 5 7 8 9 11 12 12 12 11 10 8 4 3 4 5 4 3 4 3 3 2 3 3 2 3 3 4 4 7 9 5 5 7 7 11 13 14 15 14 12 9 9 11 13 13
13 13 12 10 10 10 10 11 15 16 14 11 10 10 11 12 13 12 10 9 8 6 5 6 8 8 7 5 4 4 5 5 5 5 5 5 4 4 3 3 3 3 4 5 6 8 10 12 13 13 11 10 8 6 4 5 5 5 6 7 6 4 3 4 5 5 5 4 3 3 4 6 4 4 5 4 8 12 13 13 13 11 7 5 7 10 11
Wind_Direction
75 81 79 81 86 78 66 63 53 41 39 43 53 52 36 94 112 140 126 100 91 87 68 59 54 55 60 53 41 41 43 41 38 36 36 30 24 21 20 21 18 14 10 4 3 3 2 4 4 3 3 2 1 5 10 13 14 11 13 9 344 312 282 270 264 249 226 213 208 200 190 181 175 175 177 173 168 171 178 176 170 168 171 175 173 168 164
80 79 81 86 89 81 61 52 51 52 52 49 50 50 53 69 79 96 104 95 84 77 71 66 62 61 65 63 52 46 44 42 38 38 40 38 30 25 21 18 16 13 11 9 9 8 6 5 5 5 3 1 1 5 7 9 12 12 15 16 9 356 319 283 267 255 234 217 212 197 184 178 172 173 178 171 167 176 182 174 166 165 165 163 161 160 157
79 80 85 87 89 84 68 46 34 43 51 43 37 34 42 65 80 87 92 93 86 67 69 74 68 65 69 66 57 51 43 36 36 36 36 35 33 30 24 19 17 13 11 12 12 12 10 7 7 7 3 2 6 9 7 7 9 12 17 20 19 16 5 326 271 254 234 216 210 191 179 178 172 170 175 171 169 174 170 162 160 161 159 155 154 155 154
109 100 100 102 96 85 67 43 30 38 50 50 41 31 25 48 97 102 89 85 94 97 86 80 70 66 67 63 58 57 49 39 37 35 30 27 25 24 25 23 20 17 13 12 11 9 9 8 9 9 7 8 12 11 9 11 13 16 20 22 22 21 19 13 311 257 227 205 201 185 172 172 170 173 176 170 165 162 154 153 153 152 151 150 150 151 151
131 154 143 109 84 78 55 19 24 62 85 86 65 41 32 35 55 91 82 85 106 113 100 83 72 69 67 63 58 57 55 48 42 34 27 22 15 13 19 24 24 21 17 14 11 8 8 9 10 13 16 18 18 16 16 19 21 23 26 26 25 23 21 24 19 321 206 188 187 180 169 167 166 169 169 162 159 154 148 148 148 144 143 145 144 145 145
136 179 198 22 41 73 28 330 354 99 107 94 78 51 40 50 63 77 84 92 98 97 95 87 78 71 67 63 59 56 56 52 42 33 26 20 16 12 13 19 21 18 19 19 17 14 12 12 14 20 25 26 25 27 29 30 30 29 29 29 29 27 24 26 30 31 91 166 172 167 164 164 159 156 156 153 151 148 145 145 143 140 139 140 139 140 142
129 162 125 67 66 113 113 32 70 96 103 95 86 68 50 58 80 94 97 103 110 107 102 93 84 80 75 69 63 58 54 51 46 41 31 23 26 23 15 14 14 14 15 16 17 17 15 15 17 23 27 27 30 34 35 35 35 33 32 32 32 32 29 28 32 35 43 88 142 147 149 153 150 145 146 145 143 141 140 140 139 137 137 137 137 137 137
110 97 52 101 131 128 123 103 91 102 104 89 79 64 44 38 51 95 115 122 126 122 115 106 99 98 90 72 58 50 48 49 50 47 37 29 34 34 30 27 24 22 21 18 18 19 19 20 23 24 26 28 32 36 37 38 37 36 36 35 32 33 33 33 34 35 39 48 76 119 132 137 137 135 136 138 138 137 135 132 132 132 132 132 132 131 131
106 102 68 94 121 136 149 147 87 92 62 296 94 84 59 27 14 50 123 131 139 141 132 129 130 118 94 70 46 31 28 31 36 38 38 40 42 41 40 41 41 41 38 34 31 28 26 27 27 27 28 30 35 37 38 38 37 37 37 35 33 33 35 38 40 39 41 43 42 80 114 121 122 124 126 128 130 133 133 128 126 126 125 124 124 125 124
88 111 108 116 148 176 165 169 329 357 337 279 133 107 92 31 4 19 111 124 140 155 157 163 168 127 69 63 48 28 23 21 28 37 40 44 47 43 39 40 41 42 43 42 39 37 35 32 30 31 32 33 37 39 38 37 36 36 36 33 32 33 34 39 47 47 46 43 36 53 93 107 111 115 118 117 118 123 126 124 122 122 120 117 115 115 114
109 118 121 142 182 169 132 154 305 332 332 285 143 111 112 62 2 20 96 107 118 146 172 197 198 163 89 92 73 40 29 24 29 36 39 42 46 45 43 41 39 38 41 43 43 42 39 35 33 35 35 37 40 40 37 36 36 36 35 33 33 36 36 41 51 57 55 49 39 43 70 91 101 106 109 110 111 114 117 117 116 115 115 112 107 104 103
110 105 108 114 123 148 139 264 299 318 326 284 161 161 154 129 34 40 85 95 91 120 148 163 129 117 122 127 108 67 52 40 35 35 35 35 35 34 35 37 37 38 40 42 42 41 39 38 40 40 39 40 41 38 37 38 35 33 35 39 42 44 47 49 53 60 63 58 48 44 54 71 86 96 102 105 108 109 111 112 112 110 108 105 100 97 97
81 87 107 99 48 218 232 282 293 306 325 142 162 184 135 114 89 75 84 85 75 84 94 93 86 80 90 108 109 83 66 51 40 38 39 41 39 35 34 34 34 35 36 37 39 38 37 40 44 45 45 44 42 39 39 38 35 33 37 45 49 50 53 55 57 59 63 63 55 49 53 63 74 84 93 99 102 102 104 108 109 105 102 100 97 94 93
92 92 97 88 77 90 303 297 300 319 44 169 159 106 100 99 93 91 94 93 89 88 89 94 99 99 97 98 96 82 72 63 48 40 38 38 38 37 39 38 36 33 32 33 34 33 35 39 43 47 50 49 46 42 40 38 40 42 44 46 49 52 54 56 58 59 61 63 60 55 55 61 67 74 82 90 95 97 99 105 107 104 101 99 97 93 91
96 80 70 97 142 315 319 297 303 348 62 143 125 102 95 89 86 89 88 85 88 93 96 98 102 106 104 100 100 97 86 73 57 47 42 39 37 38 39 38 35 33 31 29 29 30 31 36 42 47 51 52 50 46 42 41 45 49 49 48 48 50 53 55 58 59 59 61 62 61 60 60 63 66 71 78 87 95 100 102 104 104 102 100 98 95 91
94 98 90 106 61 336 354 76 104 62 82 114 118 109 102 93 91 95 91 87 88 95 101 102 101 103 106 106 105 99 83 69 60 52 47 43 41 41 41 40 37 35 30 25 26 29 29 30 35 43 49 51 50 47 45 46 47 49 50 50 49 48 48 52 56 59 60 59 61 64 65 64 64 63 64 69 79 92 104 106 103 102 102 101 100 96 92
76 89 96 93 71 43 54 78 95 97 96 96 96 100 103 103 104 104 101 100 96 95 102 104 101 101 103 101 100 97 88 77 66 59 56 53 49 44 42 40 37 33 29 25 24 25 24 22 24 30 37 44 46 44 44 46 48 50 51 52 51 49 49 50 52 55 59 59 59 62 65 69 72 69 64 63 70 83 98 109 108 102 100 100 99 96 95
87 71 76 94 91 81 78 82 90 96 96 94 93 97 100 101 101 103 107 113 113 109 106 104 102 109 116 114 115 118 111 100 88 78 71 63 56 49 43 39 33 27 25 25 25 24 23 22 22 19 19 24 33 38 41 41 41 46 48 47 46 47 51 56 56 55 56 57 58 58 60 66 76 81 78 72 72 78 88 100 107 106 102 101 100 98 98
110 82 96 108 102 103 103 99 98 97 97 99 102 102 104 104 101 100 101 102 103 103 105 109 114 123 129 128 128 135 135 133 132 116 86 61 54 53 44 37 34 28 23 21 21 21 24 27 29 27 22 19 18 21 33 41 40 39 41 41 40 40 46 57 65 65 63 62 62 60 58 59 65 71 76 76 75 78 84 94 107 114 113 112 111 107 103
91 107 125 120 104 107 110 104 105 108 109 114 115 112 115 117 116 119 120 120 121 122 123 129 132 131 135 136 136 151 166 163 164 167 162 16 33 41 34 31 33 32 30 26 21 18 22 29 35 37 33 28 26 25 33 43 46 43 38 34 36 38 39 46 64 74 75 74 73 72 69 67 63 61 62 64 66 71 81 91 102 113 119 120 116 111 109
95 107 124 118 99 90 87 94 110 120 124 126 122 115 116 120 120 125 128 132 139 143 144 145 140 138 156 163 159 169 188 187 191 224 256 276 296 319 347 17 27 29 32 35 29 21 19 27 37 41 35 30 32 39 42 39 39 40 36 30 29 30 33 37 46 68 83 84 85 85 85 83 81 77 74 71 70 73 81 90 98 105 111 114 115 113 111
122 143 153 146 127 117 124 132 133 133 133 128 123 121 123 128 133 134 129 126 134 145 155 155 147 149 178 180 172 180 198 203 204 223 249 272 283 285 290 301 306 325 5 22 25 21 15 20 32 37 32 25 26 31 33 33 31 29 27 25 24 23 29 41 50 58 88 96 94 96 98 97 96 94 90 88 88 87 88 94 101 106 106 108 114 117 113
139 155 161 155 129 129 148 153 145 141 140 134 134 141 144 147 153 149 139 131 138 163 180 174 163 165 183 188 187 196 207 210 210 217 234 257 273 277 278 284 287 288 298 319 339 358 3 11 23 25 19 19 22 22 23 28 30 25 20 22 30 32 33 45 60 68 75 96 106 105 106 108 109 107 103 99 95 94 94 95 97 101 105 109 111 112 113
134 145 151 143 129 135 152 159 154 153 151 144 143 153 155 159 164 160 157 164 171 180 202 202 190 184 186 189 196 204 211 219 228 239 252 263 277 287 286 284 286 289 287 285 291 316 340 350 1 3 2 10 22 19 10 14 21 23 24 29 38 40 38 47 66 74 74 78 91 99 105 116 119 118 116 112 106 100 97 97 96 97 101 105 105 104 106
128 138 140 134 132 137 148 152 153 159 160 157 156 166 169 171 172 169 170 178 183 185 196 209 211 207 200 201 207 211 215 225 234 252 277 288 291 295 295 292 293 298 299 292 286 291 310 326 332 338 345 0 15 11 3 6 16 22 30 38 39 37 38 44 56 69 73 72 71 72 76 97 133 140 130 121 116 109 103 99 99 100 100 99 99 99 100
113 119 114 108 112 123 130 136 147 166 169 165 164 172 179 180 179 180 184 188 192 195 199 206 214 214 211 212 214 216 224 234 239 257 286 323 8 23 16 3 355 1 11 1 315 290 292 302 307 314 323 334 356 4 2 5 16 25 34 39 36 34 37 39 40 49 56 54 55 63 68 70 88 143 159 145 130 121 114 109 103 102 101 99 98 98 98
108 110 106 103 111 128 137 149 169 178 175 171 170 178 187 187 186 188 193 196 198 201 203 207 212 215 216 218 218 221 233 228 147 145 108 76 64 46 32 19 12 24 45 51 45 13 326 319 312 309 315 322 329 346 355 360 13 25 26 21 21 26 31 35 40 47 45 40 45 60 66 65 68 83 136 163 152 132 120 116 111 107 105 103 101 102 100
106 109 112 120 139 151 150 155 163 169 173 175 176 178 183 186 184 183 190 201 206 208 210 211 210 210 215 216 205 190 173 133 119 113 98 78 54 33 28 29 35 49 53 44 39 34 23 20 17 6 6 8 352 335 338 347 4 17 17 13 15 20 25 30 41 51 51 49 49 51 60 70 73 72 85 139 156 142 126 119 116 111 107 106 106 108 108
118 116 118 133 141 132 124 130 139 144 151 161 164 163 161 163 167 168 176 189 193 194 201 209 211 214 215 199 165 145 138 135 131 120 93 66 42 26 21 21 37 49 39 29 30 32 33 38 42 37 30 20 4 356 354 344 345 1 10 13 13 14 18 21 21 25 41 48 42 41 60 79 82 77 80 101 139 148 137 124 114 107 104 103 108 117 121
134 126 124 130 128 120 116 121 123 117 119 126 130 135 136 134 137 156 176 181 175 168 176 190 191 184 173 161 153 147 146 144 137 117 87 58 34 22 13 6 14 24 18 18 25 30 28 24 18 10 358 344 341 357 15 17 3 6 13 13 6 3 4 5 5 11 26 38 40 56 79 86 83 84 89 96 116 146 145 130 110 104 104 102 107 117 127
138 131 129 132 134 132 131 129 125 123 122 118 115 119 124 119 118 139 168 171 154 149 158 167 160 147 147 152 153 151 148 144 132 112 84 48 29 25 17 9 7 6 5 8 9 6 1 352 337 328 331 331 331 341 7 18 11 4 5 6 356 354 360 5 7 11 24 53 71 81 89 87 83 88 99 104 114 137 146 137 118 112 111 104 102 111 125
129 125 125 134 145 135 120 111 117 123 120 115 115 122 124 119 122 135 146 144 137 137 145 157 159 157 156 155 154 153 151 143 131 115 87 43 27 24 20 19 20 13 358 353 345 334 330 329 321 310 317 330 332 342 3 6 357 346 347 341 327 340 1 15 17 18 65 128 118 100 86 78 76 86 103 115 124 134 140 138 128 122 115 105 102 109 121
127 136 146 160 156 124 112 122 135 138 138 131 129 129 125 123 126 127 120 116 122 130 137 150 153 158 163 163 159 157 155 146 136 133 122 30 18 15 11 11 11 3 348 335 326 319 315 315 310 300 309 330 337 350 358 356 344 339 345 338 320 328 354 16 21 22 147 144 119 104 97 89 91 105 117 128 135 138 139 136 129 123 117 111 110 114 118
139 158 169 169 158 141 140 152 155 147 140 131 133 137 134 128 127 126 122 120 121 123 145 225 174 169 173 170 162 160 163 158 152 170 199 261 350 355 354 352 351 351 348 339 330 323 320 319 307 289 290 318 321 324 339 340 321 332 339 334 328 332 350 11 15 6 203 183 154 134 126 119 140 143 131 132 138 137 136 136 130 123 121 121 121 122 121
128 126 121 126 134 139 142 144 144 140 128 115 127 139 138 134 136 138 134 128 125 125 131 143 170 179 176 170 165 172 181 174 169 192 211 242 296 316 332 341 345 349 354 355 349 342 349 355 340 299 288 307 312 317 330 317 290 310 328 328 326 327 339 360 3 352 205 189 178 159 139 128 147 147 132 128 132 130 131 136 133 125 125 127 126 123 119
115 107 101 108 118 124 128 131 132 129 125 129 141 146 144 149 159 162 153 145 144 142 139 139 149 167 171 170 176 195 203 196 196 210 228 250 263 282 310 323 331 337 341 345 349 343 347 1 6 341 314 313 312 317 335 316 287 294 324 342 344 340 337 350 358 358 193 190 182 156 133 128 142 144 132 126 129 126 125 130 129 123 123 128 128 122 115
108 105 105 111 116 118 121 126 128 125 125 131 144 151 153 155 155 148 150 166 170 167 167 168 167 170 174 179 192 206 205 207 215 223 237 250 254 267 291 305 315 321 321 322 330 334 332 344 357 354 338 331 329 331 332 314 286 293 320 340 352 354 343 342 359 11 216 214 200 159 140 144 146 143 137 133 132 128 126 128 129 124 120 123 125 120 113
105 104 106 112 114 111 110 117 125 129 131 135 140 143 142 136 118 98 98 135 165 171 180 188 189 186 186 190 201 209 209 214 224 233 240 246 251 264 282 296 308 314 311 307 306 305 309 326 338 339 337 341 343 336 319 288 270 284 300 303 310 322 320 322 10 27 308 238 213 182 165 173 168 156 147 143 141 139 137 136 137 135 127 123 124 124 120
107 101 105 115 115 107 107 117 123 126 130 135 137 135 129 120 101 90 95 108 125 139 161 183 195 201 200 202 215 230 231 230 236 244 247 248 252 262 275 291 307 316 319 312 280 263 281 318 332 333 331 329 330 331 316 284 271 278 289 291 288 289 293 300 336 358 330 266 221 205 197 196 196 187 167 152 149 151 148 143 142 143 138 127 121 119 119
110 105 115 127 122 106 114 126 123 121 132 144 145 141 134 127 109 98 100 106 98 65 66 168 193 202 207 214 231 250 253 250 251 252 252 252 253 258 268 284 297 310 328 340 297 266 282 313 321 321 317 296 300 317 319 288 274 277 287 294 289 286 301 317 305 288 304 292 235 215 211 208 206 200 183 168 166 166 163 159 155 153 151 144 136 132 129
123 122 125 122 111 104 124 127 115 110 132 148 148 142 145 148 135 114 106 105 97 58 23 24 193 203 203 206 220 242 257 266 265 258 253 253 251 250 258 271 279 277 280 290 265 257 279 301 307 306 298 281 288 303 302 283 285 288 291 304 305 297 309 327 304 218 278 320 263 224 217 214 210 202 191 184 185 182 180 179 171 164 166 165 156 153 163
131 125 116 109 106 109 113 112 107 108 123 137 141 139 142 149 143 133 125 110 101 67 15 19 18 244 219 216 231 264 292 304 292 267 255 253 250 248 253 263 271 269 262 252 243 272 301 307 307 304 289 269 267 280 281 281 292 293 287 309 321 309 302 306 280 221 268 328 301 238 220 215 212 206 198 196 198 198 194 190 181 172 174 174 165 149 154
126 117 111 111 109 105 106 112 117 119 122 132 143 148 151 149 141 147 162 159 133 23 360 24 42 52 34 8 342 334 334 323 295 267 261 260 257 255 256 263 272 273 261 248 248 291 311 314 322 323 298 261 254 268 279 278 284 285 282 301 322 319 303 292 272 251 267 304 301 243 223 215 210 205 202 203 205 205 206 205 199 189 184 181 175 157 147
125 123 123 121 112 107 116 126 130 129 131 145 160 159 152 145 140 146 158 141 110 81 48 45 54 53 32 360 327 331 340 330 274 229 242 250 250 252 257 261 267 267 255 245 251 284 304 313 337 350 334 262 255 271 279 276 279 283 287 296 311 316 303 293 287 281 281 287 278 235 227 222 213 206 202 201 203 208 212 213 213 207 197 187 181 178 170
127 129 137 136 120 114 122 132 140 146 155 169 173 155 141 136 132 125 117 112 101 92 78 51 15 355 342 325 314 320 332 323 247 211 213 224 238 260 276 271 264 259 250 245 251 268 283 297 328 347 343 291 271 273 277 278 279 281 285 292 300 302 298 297 300 298 290 276 243 221 228 227 222 216 209 202 201 207 212 211 210 208 201 189 181 186 188
136 143 151 146 129 126 136 148 159 163 150 119 114 125 130 127 115 102 105 107 70 29 24 15 6 4 355 340 327 318 237 193 207 224 232 234 253 294 318 303 274 260 246 238 240 247 257 273 295 314 319 307 289 279 276 275 272 271 277 289 299 303 304 306 308 304 285 243 211 199 209 225 226 222 215 207 202 204 209 209 205 204 201 193 183 187 195
153 157 153 143 144 161 168 161 145 127 111 102 102 107 109 100 91 89 92 84 67 60 64 71 66 54 37 19 17 124 166 180 194 216 245 261 267 285 312 308 286 270 253 242 242 246 255 268 278 285 295 303 302 291 280 271 265 264 272 289 307 316 320 321 320 309 266 214 196 184 160 200 230 226 221 214 207 206 210 213 210 206 205 203 199 197 200
154 149 146 145 150 166 167 146 125 117 118 116 111 105 104 106 104 99 93 89 87 86 87 86 79 72 68 65 63 67 81 140 229 248 257 264 264 262 266 280 284 277 268 262 258 257 263 274 279 278 281 291 300 299 288 275 264 261 269 286 303 313 320 325 320 290 237 212 205 206 204 240 254 238 228 219 213 212 214 215 213 210 210 211 210 207 208
146 146 151 151 143 143 148 144 135 133 135 132 123 117 116 113 106 98 94 95 95 91 86 82 76 69 66 63 55 48 42 8 308 283 273 277 278 272 266 267 271 275 275 273 269 268 274 283 286 283 279 281 290 297 290 268 248 256 290 306 313 317 326 339 333 277 220 210 228 242 224 190 212 261 230 213 210 214 216 216 215 214 215 217 219 215 209
145 144 146 146 140 140 146 149 147 146 145 138 128 124 124 119 111 104 102 102 99 92 87 86 84 79 75 70 61 51 43 28 349 320 306 305 303 294 282 272 268 269 272 272 270 268 272 280 285 285 279 274 279 290 280 241 224 248 316 330 336 335 336 354 3 328 219 238 289 262 217 195 202 293 256 220 213 215 216 215 215 216 216 220 223 218 210
140 133 129 134 139 137 137 145 149 147 144 136 128 127 131 128 120 112 108 106 98 87 81 85 88 86 85 84 75 58 46 40 33 15 353 330 322 328 329 313 294 288 288 286 281 276 274 277 283 287 282 270 263 258 227 207 210 229 276 300 310 310 300 310 329 311 271 273 293 262 213 202 224 296 297 257 229 219 213 211 212 211 210 213 217 216 214
139 137 132 128 124 117 117 133 141 137 130 123 124 131 136 134 125 114 105 96 87 79 82 92 93 88 83 80 74 58 39 28 25 24 22 20 19 14 7 357 345 333 323 315 307 297 287 282 283 283 277 263 245 223 214 225 233 240 260 277 283 282 284 292 292 279 255 238 230 219 207 208 229 291 310 268 224 210 204 205 209 210 207 202 204 207 213
Height
781 782 784 785 789 795 799 800 802 802 799 797 797 797 798 795 791 799 809 814 822 832 836 838 840 838 839 839 838 838 837 836 836 835 833 831 828 827 826 825 824 823 822 820 817 814 811 808 806 803 800 797 794 792 789 786 784 781 780 779 777 776 773 770 768 770 771 771 772 772 774 776 778 781 784 786 789 795 800 798 796 797 800 802 804 805 807
787 786 788 790 792 799 804 806 806 807 807 806 806 805 804 803 803 808 815 822 830 837 840 841 841 840 841 841 840 839 838 837 837 836 836 835 833 831 830 828 827 826 825 824 822 819 816 812 810 807 804 801 797 794 791 789 786 784 782 780 778 777 775 772 768 768 769 769 770 771 771 773 776 780 785 786 788 794 797 795 795 796 799 802 804 806 808
797 793 793 796 799 804 810 813 812 811 811 812 815 815 812 811 815 821 823 829 837 841 841 842 842 842 842 842 843 842 840 840 839 838 838 837 836 834 833 831 829 827 825 825 823 822 820 817 814 811 808 805 801 798 795 791 789 786 784 782 780 778 775 772 769 768 768 768 769 770 770 772 775 779 784 785 788 793 793 792 793 795 797 800 803 806 808
804 801 799 801 799 798 806 816 820 819 818 820 823 825 822 818 819 822 823 829 838 842 843 843 843 843 844 845 845 845 844 844 843 842 842 840 839 837 835 833 831 829 827 825 824 823 822 820 818 815 813 809 805 802 799 795 792 789 786 784 781 779 776 773 770 768 768 768 769 769 770 772 775 778 782 784 787 791 790 790 792 794 796 799 802 806 808
803 804 802 800 792 792 806 820 824 824 825 826 827 829 829 826 825 826 828 833 840 843 843 844 845 845 846 847 847 847 848 847 847 846 845 843 842 840 837 836 834 832 830 828 826 825 823 822 820 818 816 813 810 807 803 799 796 792 789 787 784 781 777 773 770 768 767 767 768 768 769 771 774 778 782 783 786 788 788 789 791 793 796 798 801 805 808
801 804 801 799 797 804 819 825 822 821 825 827 830 833 833 832 833 834 837 840 843 844 845 847 848 848 849 850 849 849 850 850 850 849 848 846 845 842 840 839 837 835 833 831 830 827 825 824 822 820 818 816 814 811 807 803 799 796 793 790 787 784 780 776 773 770 768 767 766 766 768 770 774 778 780 782 785 787 786 788 791 792 796 798 800 804 808
799 804 801 800 809 822 828 826 823 824 827 828 831 837 837 835 836 839 841 844 845 847 849 850 850 852 852 852 851 851 851 851 851 851 850 849 847 845 844 842 840 838 836 834 832 830 828 826 823 821 819 817 815 812 808 805 801 799 796 793 790 787 784 780 776 773 770 769 768 766 767 770 773 776 778 781 785 786 786 788 790 792 796 799 800 803 808
799 806 804 804 817 829 828 827 827 827 827 827 829 836 841 840 838 839 842 845 847 848 851 852 852 853 853 852 853 853 852 852 852 852 852 851 849 848 846 845 843 840 838 837 835 832 830 828 825 822 820 818 815 812 809 807 804 802 799 796 793 791 788 784 781 777 775 773 772 770 768 770 774 777 780 782 784 785 786 789 791 794 797 799 800 803 807
803 812 817 818 825 830 829 829 829 827 829 828 827 835 844 844 841 840 842 845 847 849 851 852 851 851 851 854 856 855 854 853 853 853 853 852 851 849 848 847 844 842 841 839 837 835 833 830 827 825 822 820 817 814 811 808 806 804 801 799 797 795 792 789 786 783 780 778 778 776 772 772 776 779 782 785 785 784 786 789 793 796 799 801 802 803 806
807 812 821 825 824 825 828 830 828 827 828 827 825 833 843 846 843 842 842 844 847 849 850 850 849 848 851 857 859 857 856 855 854 854 854 852 851 850 849 848 846 844 842 840 839 837 834 832 830 827 825 822 819 815 813 811 809 807 804 803 801 799 797 794 791 788 786 784 785 783 777 776 779 781 784 787 787 786 787 791 794 798 801 802 803 804 806
805 806 814 819 820 823 829 831 830 828 826 825 825 830 840 847 847 843 843 846 847 848 848 849 848 849 854 860 861 859 858 857 856 856 854 853 852 850 849 848 847 846 844 842 841 839 836 834 832 829 827 824 821 818 816 814 813 810 808 807 805 803 802 799 796 792 790 790 791 789 784 781 782 783 786 789 790 791 792 794 796 800 803 802 803 805 807
802 806 816 822 824 828 832 831 830 827 825 826 826 825 834 848 849 845 846 848 848 848 848 848 848 850 854 859 861 860 859 859 858 857 855 854 853 852 851 850 849 848 846 844 843 841 839 837 834 832 830 826 823 821 820 818 816 814 813 812 810 808 805 803 800 797 794 795 796 794 789 787 786 787 789 792 794 796 797 797 799 802 804 803 803 807 809
809 814 823 828 830 831 832 830 830 827 825 826 827 828 839 849 849 847 849 850 850 849 848 849 852 854 856 858 860 860 860 860 859 858 857 856 854 853 853 851 850 849 848 846 845 843 842 840 837 835 832 829 826 825 823 821 819 818 817 815 813 811 809 806 804 801 799 799 800 798 795 793 791 792 794 796 798 799 801 801 801 804 805 804 805 809 812
813 819 825 827 829 831 831 830 829 827 825 828 834 840 847 849 849 850 851 851 851 851 850 852 855 857 858 859 860 860 861 861 861 860 858 857 856 855 854 853 851 850 849 848 847 845 844 842 839 837 835 831 829 828 826 824 823 822 820 818 816 814 812 809 807 805 803 802 802 802 801 799 798 798 799 801 801 802 805 805 805 806 807 807 808 812 815
814 819 824 823 826 830 831 830 830 830 831 835 842 847 848 849 850 852 852 852 852 852 853 855 856 858 860 861 861 861 862 861 861 861 860 859 858 857 855 854 853 851 850 849 848 847 846 844 842 840 837 834 832 831 829 828 827 826 823 821 819 817 815 812 810 809 808 807 806 806 806 806 805 805 805 805 805 806 809 810 810 809 809 809 811 814 817
822 825 829 828 832 834 830 829 834 837 838 840 843 846 848 851 852 852 853 854 854 853 855 856 858 860 861 862 862 862 862 862 862 861 861 860 859 858 856 855 854 853 852 851 850 849 848 846 844 842 839 838 836 834 833 832 830 829 827 825 823 821 819 817 815 814 813 812 811 811 811 811 811 810 810 811 810 811 813 815 815 813 812 812 814 816 819
828 831 834 835 837 837 833 833 837 840 841 842 843 846 849 851 852 852 854 855 855 856 856 857 859 861 861 862 863 863 863 863 862 862 861 860 860 859 857 856 855 854 853 853 852 851 849 847 845 843 842 840 839 837 836 835 833 832 830 828 826 825 823 821 820 818 817 816 816 815 815 815 814 814 815 815 815 815 816 818 819 817 815 816 817 818 821
829 832 837 838 838 839 838 838 839 840 841 844 845 847 849 850 851 853 854 855 856 856 857 858 859 861 861 862 863 862 863 863 862 862 862 861 860 859 858 857 856 855 855 855 853 852 851 849 847 845 843 842 841 840 839 838 836 834 833 831 829 828 827 825 824 822 821 820 820 819 819 818 817 817 818 818 818 818 819 819 820 818 818 819 820 821 823
827 835 842 841 839 841 841 840 841 841 842 845 847 848 849 850 852 853 855 856 857 857 857 858 860 860 861 861 862 862 862 862 862 862 861 860 860 859 858 858 857 857 857 856 855 853 852 850 848 846 845 844 843 842 841 840 838 837 835 834 832 831 830 829 828 826 825 824 823 823 822 821 820 820 820 820 821 821 821 822 821 821 821 823 824 825 826
830 837 842 840 840 841 841 840 842 843 844 847 848 848 849 850 852 854 855 856 857 858 858 859 859 860 861 861 862 862 862 862 862 862 861 861 860 859 859 859 858 858 857 857 856 855 853 851 850 848 847 846 845 844 843 841 840 839 837 836 835 834 833 832 831 830 828 827 827 826 826 825 824 823 823 824 824 824 825 825 825 825 825 826 827 827 828
837 842 842 841 843 845 844 843 844 845 846 848 849 850 851 852 853 855 856 856 857 858 858 858 859 860 861 861 862 862 862 862 862 862 861 861 860 860 860 859 858 858 858 857 856 855 854 852 851 850 848 848 847 845 844 843 842 841 839 838 837 836 835 834 833 832 831 830 830 829 829 828 828 827 827 827 828 828 828 828 829 829 828 829 829 829 829
840 842 840 839 841 846 847 846 846 847 848 849 850 852 853 854 855 856 857 858 859 858 858 859 859 860 861 861 862 862 862 862 862 862 861 861 861 861 860 860 859 859 858 857 856 855 854 853 852 851 850 849 848 847 846 845 843 842 841 840 839 838 836 835 835 834 833 833 832 831 831 831 831 831 830 830 830 830 830 831 831 831 831 831 831 831 831
834 835 835 835 837 842 846 846 846 848 848 849 851 853 854 855 856 856 858 859 860 859 859 859 859 860 861 861 862 862 862 862 862 862 862 861 861 861 861 860 860 859 858 858 856 855 854 853 852 852 851 850 849 848 847 846 845 844 843 842 840 839 838 837 836 835 835 834 834 834 833 833 833 833 833 833 833 833 833 833 833 833 833 833 833 833 833
829 831 833 834 836 840 843 845 846 848 849 850 852 853 854 855 856 856 858 859 859 859 860 860 860 861 861 861 862 862 862 862 862 862 862 861 861 861 861 860 860 859 858 857 856 855 855 854 853 852 851 851 850 849 848 847 846 845 844 843 842 841 840 839 838 837 836 836 836 835 835 835 835 835 835 835 835 835 835 835 834 835 835 835 835 835 835
827 830 831 833 836 839 842 844 846 848 849 850 852 853 854 855 856 857 858 858 858 859 859 860 860 861 861 861 861 861 861 862 862 862 862 862 861 861 861 860 859 859 858 857 856 856 855 854 853 853 852 851 850 850 849 848 847 846 845 844 843 843 842 841 840 839 838 838 837 837 837 836 836 836 836 836 836 836 836 836 836 836 837 837 837 837 837
827 830 832 834 838 840 843 846 848 849 849 850 851 853 853 854 855 856 857 857 858 859 859 859 859 860 860 861 861 861 862 862 862 862 862 862 861 861 860 860 859 858 857 856 855 855 855 855 854 853 852 852 851 850 850 849 848 847 846 845 845 844 843 842 841 841 840 839 839 838 838 837 836 836 837 837 838 837 837 837 837 837 838 838 839 839 839
829 830 832 837 841 842 843 845 846 847 848 849 850 851 853 854 855 856 856 857 858 858 859 859 859 859 860 861 861 862 862 862 862 862 862 862 862 861 860 859 858 858 857 856 855 855 855 855 854 853 852 852 852 851 850 850 849 848 848 847 846 845 844 843 842 842 841 841 840 839 838 837 836 836 836 837 839 839 839 839 838 839 839 839 840 840 840
831 832 833 836 839 841 842 842 843 845 847 848 849 850 852 853 855 856 857 857 857 858 859 859 858 859 859 860 861 862 862 862 863 863 862 862 862 861 860 859 858 858 857 857 856 856 855 855 854 853 852 852 852 851 851 850 850 849 849 848 847 846 845 844 843 843 842 842 841 840 840 839 838 837 837 837 839 840 840 840 840 840 840 840 841 841 842
832 833 835 836 837 839 841 842 844 846 847 848 849 850 852 854 855 856 856 856 857 858 858 858 858 859 859 860 861 862 862 862 863 863 862 862 861 861 860 859 858 858 857 857 856 856 855 855 854 853 853 852 852 851 851 850 850 850 849 849 848 847 846 845 845 844 843 843 842 842 841 840 839 839 838 839 839 840 841 841 841 842 842 842 842 842 842
834 834 836 837 839 840 842 843 845 846 847 848 849 851 852 853 854 855 856 856 856 857 857 858 858 859 859 859 860 861 861 862 862 862 862 862 861 861 860 859 858 858 857 857 856 856 855 855 854 854 853 853 852 851 851 850 850 850 849 849 848 848 847 847 846 845 844 843 843 842 842 841 841 840 840 840 840 841 842 842 842 842 842 842 842 842 842
835 835 837 839 840 840 842 844 845 847 847 848 849 851 852 853 854 855 856 856 856 856 857 857 858 859 859 859 860 861 861 862 861 861 861 861 861 861 860 859 859 858 858 857 857 856 855 855 854 854 853 852 852 851 851 850 850 850 849 849 849 848 848 847 846 845 844 844 843 843 843 842 842 841 841 841 841 841 842 843 843 843 843 843 843 842 842
836 837 838 840 840 841 843 844 846 846 847 848 849 851 851 852 854 855 855 856 856 856 857 857 857 858 858 859 860 861 861 861 861 861 861 861 861 861 860 860 859 858 858 858 857 856 856 855 854 853 853 852 852 851 851 850 850 850 849 849 849 848 848 847 847 846 845 844 844 844 844 843 843 842 842 842 841 842 842 843 843 843 843 843 843 843 843
837 839 839 840 841 843 844 846 846 846 847 848 849 850 851 852 853 854 855 855 856 856 857 857 857 858 858 859 859 860 861 861 861 861 861 861 861 861 860 860 859 859 858 857 856 856 855 854 853 853 852 852 851 851 850 850 850 849 849 849 849 848 848 848 847 847 846 845 845 845 844 844 844 843 843 842 842 842 842 842 842 842 843 843 843 843 844
835 837 838 838 840 842 844 845 846 847 848 849 850 851 852 852 853 854 854 855 855 856 856 857 857 858 858 859 859 860 860 860 860 860 860 860 860 860 860 859 859 858 858 857 856 855 854 853 852 852 852 851 851 851 850 850 850 849 849 849 848 848 848 848 847 847 846 846 846 845 845 844 844 844 843 843 843 843 843 842 842 842 842 843 843 844 844
835 836 837 838 839 841 843 844 846 847 848 849 851 851 852 853 853 854 855 855 855 856 856 856 857 858 858 859 859 860 860 859 859 860 860 860 860 860 859 859 858 858 857 856 856 855 854 853 852 852 852 851 851 850 850 850 849 849 849 849 848 848 848 848 847 846 846 846 846 846 845 845 844 844 844 844 844 844 844 843 843 843 843 843 844 844 844
836 837 838 839 841 842 843 845 846 846 847 849 850 851 852 853 853 854 854 854 855 855 855 856 856 857 858 858 859 859 859 859 859 859 859 859 859 859 859 858 858 857 857 856 855 854 854 853 852 852 852 851 851 850 850 849 849 849 849 848 848 847 847 847 847 846 846 847 846 846 845 845 845 845 845 845 845 844 844 844 844 844 844 844 845 845 845
837 838 840 841 842 843 844 845 846 846 847 849 850 851 852 853 854 854 854 854 854 855 855 855 856 856 857 857 858 857 858 858 858 858 858 858 858 858 858 858 857 857 856 855 855 854 853 853 852 852 852 851 851 850 850 849 849 849 848 848 847 847 847 847 847 846 846 846 846 846 846 845 845 846 846 845 845 845 845 845 845 845 845 846 846 846 846
839 839 840 842 843 844 845 845 846 847 847 849 850 851 852 853 853 853 853 854 854 854 854 855 855 856 856 856 856 856 857 857 857 857 857 857 857 857 857 857 856 856 855 854 854 853 853 853 852 852 851 851 850 850 849 849 849 848 848 847 847 846 846 847 847 846 846 846 846 846 846 846 846 846 846 845 845 845 845 845 846 846 846 846 846 846 846
839 840 841 842 843 844 845 846 846 847 848 849 850 851 852 852 853 853 853 854 854 854 854 854 854 855 855 855 856 856 856 856 856 856 856 856 856 856 856 856 855 855 854 853 852 852 852 852 852 851 851 850 850 850 849 849 848 848 847 847 846 846 846 846 846 846 846 846 846 846 846 846 846 846 845 846 846 845 845 846 846 846 846 846 846 846 847
839 840 842 842 843 844 845 846 846 847 848 849 850 851 851 852 853 853 853 853 854 854 854 854 854 854 854 855 855 855 855 855 855 855 855 855 855 855 855 855 854 854 853 852 852 852 852 852 851 851 850 850 850 849 849 848 848 848 847 846 846 845 845 845 845 845 845 845 845 845 846 846 846 846 846 846 845 845 846 846 846 846 846 846 846 847 847
840 841 843 843 844 845 845 846 847 847 848 849 850 850 851 852 852 852 853 853 853 854 854 854 854 854 854 854 854 854 854 853 853 853 854 854 854 854 854 853 853 853 852 852 851 851 851 851 850 850 850 850 849 849 849 848 848 847 847 846 845 845 844 844 844 845 844 844 843 844 844 845 845 845 845 845 845 846 846 846 846 846 846 846 847 847 847
841 842 843 844 845 845 846 847 847 848 849 849 850 851 851 852 852 852 852 852 853 853 853 853 853 853 853 853 853 853 853 852 852 852 852 852 852 853 852 852 852 852 851 851 851 851 850 850 850 849 849 849 849 849 848 848 848 847 846 846 845 845 844 844 844 844 844 844 843 843 844 845 845 845 845 845 845 845 846 846 846 846 846 847 847 847 847
841 842 843 844 845 846 846 847 848 848 849 850 850 850 851 851 851 851 852 852 852 852 852 853 853 853 853 853 853 852 852 852 851 851 851 851 851 851 851 850 851 851 850 850 850 850 850 849 849 848 848 848 848 848 848 847 847 847 846 846 845 844 844 843 843 844 844 843 843 842 843 844 844 844 844 845 845 845 845 846 846 846 846 847 847 847 848
841 842 843 844 845 846 846 847 847 848 849 849 850 850 850 851 851 851 851 851 851 852 852 852 852 852 852 852 852 851 851 851 851 851 851 850 850 850 850 849 849 850 850 850 850 850 849 849 848 848 848 847 847 847 847 847 846 846 845 845 845 844 843 843 843 842 843 843 842 842 842 842 843 843 844 844 844 845 845 845 846 846 847 847 847 848 848
841 842 843 844 845 845 846 847 847 848 848 849 849 850 850 850 851 851 851 851 851 851 851 851 851 851 851 851 851 850 850 850 850 850 850 850 850 849 849 848 848 848 849 849 849 849 849 848 848 848 847 847 847 847 846 846 845 845 845 844 844 844 843 842 842 841 841 841 842 842 841 841 841 842 843 843 844 844 844 845 846 846 846 847 847 848 848
840 841 842 843 844 845 845 846 847 847 848 848 849 850 850 850 851 851 851 851 851 851 851 851 851 850 850 850 850 850 850 850 850 850 849 849 849 848 848 847 847 847 847 848 848 848 848 848 847 847 847 847 846 846 845 845 844 844 844 843 843 842 842 841 840 839 839 840 841 841 840 840 840 840 841 842 843 843 844 845 845 845 846 846 847 847 848
840 841 842 843 844 844 845 846 847 847 847 848 849 849 850 850 851 850 850 850 850 850 850 850 850 850 850 850 849 849 849 849 849 849 849 848 848 848 847 847 847 847 847 847 847 847 847 847 846 846 846 846 845 845 844 844 843 843 843 842 842 841 841 840 839 838 838 839 839 840 840 839 839 839 839 840 841 842 843 844 844 845 845 846 846 846 847
839 841 842 843 843 844 845 846 846 846 847 848 849 849 850 850 850 850 850 850 850 850 850 850 850 850 850 850 849 849 849 849 849 849 848 848 847 847 847 846 846 846 846 846 846 846 846 845 845 845 845 844 844 844 843 842 842 842 842 842 841 840 840 839 838 838 838 838 839 839 839 839 839 839 839 839 840 841 842 843 844 844 845 845 846 846 846
839 840 841 842 843 843 844 845 845 846 847 848 849 849 850 850 850 850 850 850 850 850 851 851 851 850 850 850 850 850 849 849 849 848 848 848 847 846 846 846 845 845 845 845 845 845 845 844 844 844 844 843 843 843 842 841 842 842 841 841 840 840 839 838 837 837 837 838 838 839 839 839 839 839 838 838 839 840 841 842 843 843 844 844 845 845 845
838 839 840 841 842 843 843 844 845 846 847 847 848 849 849 849 850 850 850 850 850 851 851 851 851 851 851 850 850 850 849 849 849 848 848 847 847 846 845 845 844 844 844 844 844 844 843 843 843 843 843 842 842 842 841 841 841 841 841 840 840 839 839 838 837 837 837 838 838 838 838 838 838 839 838 838 839 839 840 841 842 843 843 843 844 844 845
838 839 840 841 842 842 843 843 844 845 846 847 847 848 849 849 849 850 850 850 850 851 851 851 851 851 851 850 850 850 849 849 849 848 848 847 847 846 845 844 844 843 843 843 843 843 842 842 842 842 842 842 841 841 840 840 840 840 840 840 839 839 839 839 838 838 838 838 838 837 837 838 838 838 838 838 838 839 839 840 841 842 842 843 843 844 844
838 839 840 841 841 842 842 843 844 845 846 847 847 848 848 849 849 850 850 850 850 850 851 851 851 851 851 850 850 850 849 849 849 848 848 847 846 846 845 844 844 844 843 843 842 842 841 841 840 840 841 841 841 841 840 840 840 840 840 839 839 839 839 838 838 838 838 838 837 837 837 837 837 837 837 837 837 838 839 840 840 841 842 842 843 843 844